Regional Weather Roundup
Issued by NWS San Angelo, TX

Home | Current Version | Previous Version | Text Only | Print | Product List | Glossary On
Versions: 1 2 3 4 5 6 7 8 9 10 11 12 13 14 15 16 17 18 19 20 21 22 23 24 25 26 27 28 29 30 31 32 33 34 35 36 37 38 39 40 41 42 43 44 45 46 47 48 49 50
000
ASUS44 KSJT 020310
RWRSJT
WEST CENTRAL TEXAS REGIONAL WEATHER ROUNDUP
NATIONAL WEATHER SERVICE SAN ANGELO TX
1000 PM CDT MON JUN 01 2015

NOTE: "FAIR" INDICATES FEW OR NO CLOUDS BELOW 12,000 FEET WITH NO
SIGNIFICANT WEATHER AND/OR OBSTRUCTIONS TO VISIBILITY.

TXZ049-054-064>066-071>073-076>078-098-099-113-114-127-128-139-140-
154-155-168>170-020400
...LOCATIONS ACROSS WEST CENTRAL TEXAS...

CITY           SKY/WX    TMP DP  RH WIND       PRES   REMARKS
SAN ANGELO     CLEAR     75  63  66 S8        30.01R
ABILENE        CLEAR     73  64  73 SE8       30.03R
DYESS AFB      CLEAR     75  60  59 SE9       30.01R
JUNCTION       CLEAR     76  61  59 S7        30.04R
SWEETWATER     CLEAR     72  60  66 SE7         N/A
BROWNWOOD      PTCLDY    73  66  78 SE8       30.03R
COLEMAN        CLEAR     73  65  78 SE5       30.03S
SONORA         CLEAR     77  61  57 S8        30.09R
OZONA          NOT AVBL
BRADY          CLEAR     73  61  64 SE6       30.04R
$$

TEXAS PANHANDLE/OKLAHOMA PANHANDLE

CITY           SKY/WX    TMP DP  RH WIND       PRES   REMARKS
AMARILLO       CLOUDY    73  58  59 S17       30.05R
BORGER         CLOUDY    77  59  53 SE13G23   30.00F
CANADIAN       MOCLDY    74  66  77 SE9       30.01S
DALHART        CLOUDY    70  57  63 S15       30.02F
DUMAS          CLOUDY    73  57  57 E10       30.02S
GUYMON         NOT AVBL
HEREFORD       DRIZZLE   69  59  71 MISG      30.13R
PAMPA          CLOUDY    73  57  58 S20       30.03F
PERRYTON       MOCLDY    72  64  78 SE12      30.02S
$$

SOUTHERN PANHANDLE/SOUTH PLAINS/ROLLING PLAINS

CITY           SKY/WX    TMP DP  RH WIND       PRES   REMARKS
LUBBOCK        CLOUDY    74  61  63 SE12      30.04R
SNYDER         CLEAR     74  60  61 SE8       30.03S
CHILDRESS      PTCLDY    75  65  70 SE8       30.01R
SEMINOLE       PTCLDY    73  58  59 SE7       30.04S
$$

PERMIAN BASIN

CITY           SKY/WX    TMP DP  RH WIND       PRES   REMARKS
MIDLAND        CLEAR     77  59  53 SE10      30.02R
ODESSA         CLEAR     78  55  44 S10       30.02S
WINK           CLOUDY    82  57  42 SE17      29.97R
$$

FAR WEST/SOUTHWEST MOUNTAINS/TRANS PECOS

CITY           SKY/WX    TMP DP  RH WIND       PRES   REMARKS
ALPINE         PTCLDY    76  47  35 S8        30.16R
DRYDEN           N/A     80  63  55 VRB7      30.00R
EL PASO        MOCLDY    90  39  16 W10       29.99R
FORT STOCKTON  PTCLDY    77  58  51 SE18      30.01R
GUADALUPE PASS   N/A    N/A N/A N/A MISG        N/A
MARFA          FAIR      73  46  38 E12       30.15R
PECOS          CLOUDY    82  54  37 SE9       29.98R
$$

DALLAS/FORT WORTH METROPLEX

CITY           SKY/WX    TMP DP  RH WIND       PRES   REMARKS
DFW AIRPORT    PTCLDY    72  61  68 SE7       30.02R
FTW MEACHAM    CLEAR     77  61  57 SE8       30.01R
DAL-EXECUTIVE  CLEAR     72  62  71 SE5       30.03R
GRAND PRAIRIE  CLEAR     75  63  64 SE5       30.04R
ADDISON        CLEAR     77  59  53 SE8       30.03R
MESQUITE       CLEAR     71  64  76 E3        30.03R
LANCASTER      CLEAR     69  64  82 CALM      30.04R
$$

NORTH CENTRAL TEXAS

CITY           SKY/WX    TMP DP  RH WIND       PRES   REMARKS
SHRMAN/DENISON CLEAR     72  65  77 S7        30.04S
GAINESVILLE    CLEAR     72  63  73 E5        30.05S
BRIDGEPORT     CLEAR     72  65  79 CALM      30.04R
DENTON         CLEAR     74  63  68 E6        30.02R
WAXAHACHIE     CLEAR     71  64  76 E3        30.04R
GRANBURY       CLEAR     77  66  67 SE6       30.03R
$$

WESTERN NORTH TEXAS

CITY           SKY/WX    TMP DP  RH WIND       PRES   REMARKS
WICHITA FALLS  CLEAR     72  65  78 SE8       30.01R
VERNON         CLEAR     76  62  61 SE9       30.01R
BRECKENRIDGE   CLEAR     77  65  65 SE7       30.02R
COMANCHE       CLEAR     73  66  79 SE6       30.04R
$$

CENTRAL AND SOUTH CENTRAL TEXAS

CITY           SKY/WX    TMP DP  RH WIND       PRES   REMARKS
AUSTIN/BERGSTM PTCLDY    72  70  93 CALM      30.02R
WACO           CLEAR     75  64  68 E6        30.02R
HILLSBORO      CLEAR     72  63  72 E7        30.03R
TEMPLE         CLEAR     73  63  68 E5        30.02R
KILLEEN-GRAY   CLEAR     76  66  71 SE2       30.02R
FORT HOOD      CLEAR     77  66  67 SE6       30.02R
GEORGETOWN     CLEAR     79  64  61 CALM      30.02R
LAGO VISTA     FAIR      76  64  67 SE3       30.05R
SAN MARCOS     NOT AVBL
NEW BRAUNFELS  CLEAR     74  69  85 CALM      30.01R
RANDOLPH AFB   CLEAR     74  66  75 S6        30.03R
SAN ANTONIO    PTCLDY    79  64  60 S7        30.03R
STINSON        CLEAR     76  66  71 SE3       30.01R
PLEASANTON     NOT AVBL
LA GRANGE      MOCLDY    76  70  81 CALM      30.01R
GIDDINGS       MOCLDY    74  67  79 CALM      30.06R
$$

EAST TEXAS

CITY           SKY/WX    TMP DP  RH WIND       PRES   REMARKS
PARIS          CLEAR     72  61  68 SE5       30.03R
CLARKSVILLE    NOT AVBL
TYLER          CLEAR     72  65  78 CALM      30.03R
LONGVIEW       PTCLDY    72  68  87 CALM      30.02R
PALESTINE      CLEAR     68  66  93 CALM      30.04R
NACOGDOCHES    CLEAR     64  63  94 CALM      30.03R
$$

TEXAS HILL COUNTRY AND EDWARDS PLATEAU

CITY           SKY/WX    TMP DP  RH WIND       PRES   REMARKS
LLANO          CLEAR     73  66  78 SE3       30.06R
HORSESHOE BAY  FAIR      74  65  71 S5        30.03R
KERRVILLE      CLEAR     72  64  75 SE5       30.07R
FREDERICKSBRG  HAZE      73  61  66 CALM      30.06S VSB<1/4
ROCKSPRINGS    CLEAR    N/A N/A N/A S6        30.09S
HONDO          CLEAR     76  65  68 SE7       30.05R
UVALDE         CLEAR     73  68  83 E5        30.03R
DEL RIO        CLEAR     79  66  64 E10       29.98R
$$

SOUTHEAST TEXAS

CITY           SKY/WX    TMP DP  RH WIND       PRES   REMARKS
COLLEGE STN    PTCLDY    78  64  61 E3        30.02R
CALDWELL       PTCLDY    73  72  94 CALM      30.05S
CROCKETT       NOT AVBL
BRENHAM        PTCLDY    78  68  72 CALM      30.02S
HUNTSVILLE     CLEAR     72  65  78 CALM      30.02R
CONROE         CLEAR     69  65  86 CALM      30.02R
HOUSTON BUSH   MOCLDY    75  65  70 E8        30.01R
HOUSTON HOBBY  PTCLDY    79  65  62 S7        30.01R
PERLAND        MOCLDY    79  66  64 SW5       30.02R
WHARTON        CLEAR     74  69  84 S3        30.03R
$$

THE UPPER TEXAS COAST

CITY           SKY/WX    TMP DP  RH WIND       PRES   REMARKS
ORANGE         CLEAR     70  68  95 CALM      30.02R
PORT ARTHUR    CLEAR     74  66  76 N3        30.00R
GALVESTON      PTCLDY    80  68  66 CALM      30.02R
ANGLETON       CLEAR     75  69  81 CALM      30.02R
BAY CITY       CLEAR     74  70  86 CALM      30.02R
$$

TEXAS COASTAL BEND, RIO GRANDE PLAINS DEEP SOUTH TEXAS

CITY           SKY/WX    TMP DP  RH WIND       PRES   REMARKS
VICTORIA       CLEAR     75  69  81 S6        30.02R
BEEVILLE       FAIR      73  73 100 S5        30.02R
ROCKPORT       CLEAR     79  69  71 S6        30.01S
PORT ARANSAS   CLEAR     79  70  75 SE8       30.01S
PORT LAVACA    PTCLDY    74  69  85 S5        30.02R
CORPUS CHRISTI PTCLDY    77  72  84 S5        30.01S
KINGSVILLE NAS PTCLDY    75  73  93 E5        30.01S
COTULLA        CLEAR     79  68  69 SE7       30.01R
LAREDO         CLEAR     80  68  67 SE12      30.02R
BROWNSVILLE    CLEAR     76  71  85 E3        30.01S
PORT ISABEL    CLEAR     78  71  79 SE3       30.00S
HEBBRONVILLE     N/A     76  69  79 E6        30.03S
MCALLEN        CLEAR     79  71  76 SE6       30.01R
WESLACO        CLEAR     78  69  74 E3        30.01R
FALFURRIAS     CLEAR     76  70  84 CALM      30.01S
EDINBURG       CLEAR     77  70  77 E6        30.02R
$$



USA.gov is the U.S. government's official web portal to all federal, state and local government web resources and services.